Location: Chris' Backyard Observatory
(47.3045°N, 122.2839°W)
Time: 11:36:05
(UTC-08:00)

Daily predictions for brighter satellites

Satellite Brightness Start Highest point End
(mag) Time Altitude Azimuth Time Altitude Azimuth Time Altitude Azimuth
Cosmos 2233 Rocket 4.4 18:06:50 10° NNW 18:13:07 74° W 18:19:17 10° S
COSMO-SKYMED 1 2.6 18:09:35 10° NNE 18:13:55 64° ESE 18:18:13 10° S
Okean 3 3.4 18:10:06 10° N 18:14:15 62° ENE 18:18:23 10° SSE
BREEZE-M DEB (TANK) 1.3 18:13:32 10° WNW 18:16:11 84° NNE 18:18:47 10° ESE
ATLAS 3B R/B 3.7 18:10:30 10° WSW 18:17:23 47° NW 18:24:01 10° NE
Cosmos 1452 Rocket 3.8 18:14:02 10° NNW 18:19:19 78° WSW 18:24:34 10° SSE
Cosmos 1943 4.2 18:16:58 10° N 18:21:43 27° NE 18:26:28 10° ESE
Sich 1 Rocket 4.3 18:18:07 10° SSE 18:22:09 33° E 18:26:09 10° NNE
Cosmos 44 4.4 18:17:36 10° NW 18:22:27 51° WSW 18:27:31 10° SSE
CZ-2C R/B 3.8 18:19:30 10° NNE 18:23:57 83° WNW 18:28:23 10° SSW
FENGYUN 3A 3.8 18:19:32 10° SSE 18:24:58 83° WSW 18:30:26 10° NNW
Cosmos 1048 Rocket 4.4 18:20:08 10° S 18:25:08 43° ESE 18:30:05 10° NE
ALOS 2.5 18:20:36 10° S 18:25:16 77° WSW 18:29:58 10° NNW
MONITOR-E 4.3 18:22:55 10° S 18:25:56 79° WSW 18:28:59 10° NNW
NOSS 3-2 (A) 4.2 18:20:24 10° WSW 18:26:21 57° NW 18:33:03 10° NE
Gbstr 26 Del rocket 4.4 18:25:23 10° S 18:27:54 17° SE 18:30:23 10° E
Cosmos 921 Rocket 3.1 18:25:55 10° NNW 18:30:25 62° ENE 18:34:51 10° SSE
Cosmos 1674 Rocket 3.9 18:28:13 10° NNW 18:32:33 70° W 18:36:50 10° S
Okean 2 Rocket 4.2 18:30:02 10° SE 18:33:22 21° E 18:36:43 10° NE
ERS-2 2.5 18:31:38 10° SE 18:35:08 42° ENE 18:38:39 10° N
Cosmos 1464 Rocket 3.9 18:29:34 10° N 18:35:43 76° E 18:41:52 10° SSE
MTI 3.7 18:32:45 10° NNE 18:35:58 78° ESE 18:39:09 10° S
Cosmos 1420 Rocket 4.5 18:31:33 10° NNW 18:36:49 69° WSW 18:42:05 10° S
FengYun 1-2 T 4.2 18:31:50 10° SSE 18:37:14 61° ENE 18:42:39 10° N
Cosmos 2227 Rocket 3.1 18:32:50 10° SW 18:38:21 52° WNW 18:43:53 10° NNE
Cosmos 405 3.9 18:35:28 10° SSW 18:38:54 51° WNW 18:42:21 10° N
SPOT 3 Rocket 3.6 18:34:51 10° SSE 18:40:04 89° WSW 18:45:20 10° NNW
SL-16 R/B 3.0 18:37:20 10° NW 18:42:54 57° WSW 18:48:23 10° S
H-2A R/B 2.7 18:40:27 10° SSE 18:44:21 78° ENE 18:48:15 10° N
Cosmos 1184 Rocket 4.1 18:42:47 10° NNE 18:45:21 21° ENE 18:46:44 16° ESE
Cosmos 1908 Rocket 3.5 18:41:44 10° S 18:46:12 76° E 18:50:40 10° NNE
SeaSat 1 3.0 18:44:36 10° ESE 18:49:08 38° NE 18:53:41 10° NNW
Cosmos 1733 Rocket 4.4 18:45:38 10° SSW 18:49:45 43° WNW 18:53:54 10° N
Cosmos 2297 Rocket 3.2 18:46:17 10° SW 18:51:44 48° NW 18:57:14 10° NNE
COSMOS 2455 3.7 18:51:06 10° SSE 18:56:04 27° ESE 19:00:53 11° NE
SJ-6B 3.0 18:52:48 10° SE 18:56:28 47° ENE 19:00:14 10° N
Aureole 3 4.5 18:53:33 10° SSW 18:58:49 57° W 19:02:58 10° N
Cosmos 1603 3.6 18:56:15 10° NNW 19:01:56 76° ENE 19:07:33 10° SSE
USA 215 4.1 18:59:05 16° ENE 19:03:07 29° SE 19:08:38 10° S
HJ-1C 3.3 19:02:53 10° SSE 19:06:17 71° ENE 19:09:43 10° N
CZ-2D R/B 3.3 19:04:56 10° SSE 19:08:44 55° ENE 19:12:35 10° N
ATLAS CENTAUR R/B 1.9 19:05:01 10° NNW 19:08:58 43° NE 19:10:57 26° E
Okean 1 3.8 19:05:09 10° NNW 19:09:07 63° W 19:13:02 10° S
Cosmos 1975 Rocket 3.0 19:05:12 10° N 19:09:40 87° E 19:14:09 10° S
Envisat 3.1 19:05:14 10° SSE 19:10:11 56° ENE 19:15:10 10° N
Resurs 1-3 4.2 19:10:50 22° ESE 19:12:58 35° ENE 19:16:58 10° N
Cosmos 2034 Rocket 4.2 19:06:56 10° N 19:13:21 79° W 19:19:41 10° S
Meteor 1-13 Rocket 4.1 19:08:21 10° N 19:13:53 67° ENE 19:19:22 10° SSE
Cosmos 1602 3.6 19:12:14 10° S 19:16:06 76° E 19:19:59 10° NNE
Meteor 1-4 Rocket 2.7 19:13:27 10° S 19:16:51 47° E 19:20:20 10° NNE
Cosmos 2263 Rocket 2.9 19:12:30 10° SSE 19:17:15 30° ESE 19:19:30 22° ENE
Cosmos 494 Rocket 4.2 19:13:31 10° S 19:18:29 47° ESE 19:23:26 10° NNE
CRYOSAT 2 4.2 19:16:26 10° N 19:21:19 73° E 19:26:10 10° S
Cosmos 1110 Rocket 4.0 19:17:36 10° NNW 19:22:55 88° WSW 19:28:14 10° SSE
Cosmos 1634 Rocket 4.0 19:17:36 10° N 19:23:41 55° ENE 19:29:42 10° SSE
FREGAT/IRIS 4.0 19:21:15 10° S 19:24:03 39° W 19:26:53 10° NNW
Thor Agena Rocket 3.5 19:20:44 10° NNE 19:25:47 59° ESE 19:30:45 10° S
Cosmos 1816 Rocket 4.4 19:22:45 10° S 19:29:06 80° E 19:35:29 10° N
Cosmos 1269 Rocket 4.2 19:23:56 10° SSW 19:29:12 74° WNW 19:34:31 10° NNE
Resurs 01 Rocket 1.7 19:30:26 31° SE 19:32:18 54° ENE 19:36:38 10° N
YAOGAN 6 3.1 19:35:48 41° NE 19:35:48 41° NE 19:38:38 10° N
CENTAUR R/B 3.1 19:29:29 10° WSW 19:35:37 60° NW 19:42:43 10° NE
USA 267 3.6 19:35:45 29° E 19:38:56 53° NNE 19:45:15 10° NW
Cosmos 1536 Rocket 3.5 19:35:49 10° N 19:40:12 58° ENE 19:41:08 47° SE
Cosmos 1437 Rocket 3.9 19:36:19 10° SSW 19:40:16 46° WNW 19:44:16 10° N
Meteor 2-4 Rocket 3.7 19:37:41 10° NNW 19:43:32 86° WSW 19:49:09 10° S
Cosmos 1536 3.8 19:39:51 10° S 19:45:28 33° NNE 19:47:51 10° NNE
Cosmos 2227 4.3 19:40:24 10° SSW 19:46:07 79° WNW 19:51:52 10° NNE
SL-8 R/B 3.6 19:41:56 10° W 19:46:44 79° N 19:47:54 51° ENE
Meteor 1-5 Rocket 4.3 19:43:03 10° S 19:48:52 63° E 19:54:47 10° NNE
USA 186 1.9 19:49:11 73° NW 19:49:11 73° NW 19:52:18 10° NNW
SJ-11-01 4.2 19:49:52 52° ESE 19:50:41 62° ENE 19:55:23 10° N
H-2A R/B 3.6 19:59:13 21° NE 19:59:13 21° NE 20:01:56 10° N
CZ-4C R/B 2.8 19:51:26 10° NW 19:58:31 88° NE 20:02:25 34° SE
Spot 2 Rocket 3.3 19:58:05 43° SSE 19:59:46 80° ENE 20:04:53 10° NNW
NOAA 11 4.1 20:02:04 57° E 20:02:28 58° ENE 20:07:48 10° N
Meteor 1-11 Rocket 3.9 19:59:29 10° SSW 20:05:05 73° WNW 20:10:51 10° N
Cosmos 1943 3.5 20:00:38 10° NNW 20:06:14 63° WSW 20:09:25 26° S
Okean 2 Rocket 4.4 20:07:03 10° SW 20:11:11 40° WNW 20:15:23 10° N
Cosmos 1939 Rocket 3.3 20:12:53 59° SW 20:13:11 62° W 20:17:17 10° NNW
Gbstr 26 Del rocket 3.6 20:10:23 10° WSW 20:12:58 43° WSW 20:12:58 43° WSW
COSMOS 2406 4.3 20:09:42 10° NNW 20:13:42 29° NNE 20:13:42 29° NNE
Cosmos 2251 Rocket 3.4 20:11:13 10° SSW 20:16:27 88° ESE 20:17:44 53° NNE
Cosmos 2180 Rocket 4.4 20:10:45 10° N 20:16:58 68° E 20:17:37 64° ESE
Cosmos 2151 Rocket 4.1 20:16:20 10° SSW 20:20:45 59° WNW 20:25:10 10° N
SeaSat 1 3.7 20:24:15 24° SSW 20:26:38 38° WSW 20:31:14 10° NW
COSMOS 2455 3.2 20:35:38 10° SW 20:41:36 61° NW 20:44:10 34° NNE
USA 215 3.1 20:46:27 84° ENE 20:46:41 88° SSE 20:53:15 10° SW
Cosmos 2279 Rocket 4.3 20:41:12 10° NNW 20:47:20 62° W 20:49:02 46° SSW
ATLAS CENTAUR R/B 3.4 20:44:13 10° WNW 20:47:14 26° WSW 20:47:14 26° WSW
Cosmos 2263 Rocket 3.0 20:55:33 10° SW 21:00:56 48° NW 21:01:25 47° NW
Resurs 01 Rocket 4.1 21:08:00 16° WSW 21:09:07 17° W 21:12:05 10° NW
ARGOS 4.5 21:14:00 35° NNW 21:14:00 35° NNW 21:17:05 10° NNW
USA 267 3.7 21:23:06 57° W 21:23:06 57° W 21:28:23 10° NW
CENTAUR R/B 4.5 21:22:22 10° WNW 21:27:52 26° NNW 21:31:19 19° NNE
H-2A R/B 4.1 21:39:50 24° NNW 21:39:50 24° NNW 21:42:02 10° NNW
CZ-4C R/B 4.5 21:40:50 10° WNW 21:46:38 25° WSW 21:47:39 25° WSW
